"Pseudo-MPEC" for C195JE5

Created 2025 Dec 26 13:35:06 UT using Find_Orb

Click here for an explanation of pseudo-MPECs

 
 Astrometry: 
     C195JE5*1C2025 12 22.41801409 13 48.047+61 54 41.62   ~CMAo 21.63GVNEOCPV00
     C195JE5 1C2025 12 22.42426409 13 43.914+61 54 18.76   ~CMAo 21.45GVNEOCPV00
     C195JE5 1C2025 12 22.43047209 13 39.785+61 53 55.79   ~CMAo 21.65GVNEOCPV00
     C195JE5 1C2025 12 22.43667209 13 35.656+61 53 32.82   ~CMAo 21.72GVNEOCPV00
     C195JE5 KC2025 12 22.53700009 12 29.156+61 47 16.94   ~CMDZ 21.79GVNEOCPI52
     C195JE5 KC2025 12 22.54086909 12 26.536+61 47 01.86   ~CMDZ 21.65GVNEOCPI52
     C195JE5 KC2025 12 22.54473209 12 24.098+61 46 46.99   ~CMDZ 21.18GVNEOCPI52
     C195JE5 KC2025 12 22.54859809 12 21.463+61 46 32.95   ~CMDZ 21.70GVNEOCPI52
     C195JE5 0C2025 12 23.20950009 05 20.330+61 03 37.80   ~CNEZ 21.2 RVNEOCP291
     C195JE5 0C2025 12 23.21837009 05 14.590+61 03 03.10   ~CNEZ 21.5 RVNEOCP291
     C195JE5  C2025 12 23.23855209 05 01.412+61 01 45.27   ~CN6Z 21.2 GWNEOCPH01
     C195JE5  C2025 12 23.24192709 04 59.209+61 01 31.94   ~CN6Z 21.3 GWNEOCPH01
     C195JE5  C2025 12 23.25221609 04 52.503+61 00 51.36   ~CN6Z 21.9 GWNEOCPH01
     C195JE5 IC2025 12 23.25931309 04 47.888+61 00 23.41   ~CN6Z 20.5 GWNEOCPH01
     C195JE5 0C2025 12 26.47460 08 31 00.33 +56 44 43.3    ~CQC5 21.3 RVNEOCP291
     C195JE5 0C2025 12 26.47700 08 30 58.84 +56 44 30.2    ~CQC5 21.5 RVNEOCP291
     C195JE5 0C2025 12 26.47940 08 30 57.33 +56 44 16.5    ~CQC5 21.0 RVNEOCP291

Station data:
(291) LPL/Spacewatch II  (N31.961669 W111.599905)  US/Arizona.  Observers J.
   V. Scotti, R. S. McMillan. 1.8-m f/2.7 reflector + CCD.
(H01) Magdalena Ridge Observatory, Socorro  (N33.984833 W107.189333)  US/New
   Mexico.  Observers W. H. Ryan, E. V. Ryan. Measurer W. H. Ryan. 2.4-m
   f/8.9 reflector + CCD.
(I52) Steward Observatory, Mt. Lemmon Station  (N32.442570 W110.788920)
   US/Arizona. Measurers T. Beuden, V. F. Carvajal, D. Fay, J. B. Fazekas, D.
   C. Fuls, A. R. Gibbs, A. D. Grauer, H. Gröller, J. K. Hogan, R. A.
   Kowalski, S. M. Larson, G. J. Leonard, D. Rankin, R. L. Seaman, F. C.
   Shelly, K. W. Wierzchoś. 1.0-m prime focus + CCD.
(V00) Kitt Peak-Bok  (N31.963125 W111.600190)  US/Arizona. Measurers T.
   Beuden, V. F. Carvajal, D. Fay, J. B. Fazekas, D. C. Fuls, A. R. Gibbs, A.
   D. Grauer, H. Gröller, J. K. Hogan, R. A. Kowalski, S. M. Larson, G. J.
   Leonard, D. Rankin, R. L. Seaman, F. C. Shelly, K. W. Wierzchoś. 2.25-m
   reflector + 4x4K mosaic CCD.

Orbital elements:  C195JE5
   Perihelion 2025 Dec 18.228130 +/- 0.326 TT =  5:28:30.4 (JD 2461027.728130)
Epoch 2025 Dec 26.0 TT = JDT 2461035.5   Earth MOID: 0.2823      AutoNEOCP
M   2.164969911 +/- 0.15            (J2000 ecliptic)
n   0.278564851 +/- 0.00824         Peri.  160.698305 +/- 0.26
a   2.321944514 +/- 0.0458          Node   287.164237 +/- 0.014
e   0.46325532 +/- 0.00965          Incl.   47.274474 +/- 0.29
P   3.53816                H 22.06  G  0.15   U  9.5
q 1.246291360 +/- 0.00218    Q 3.397597668 +/- 0.0894
From 17 observations 2025 Dec. 22-26; mean residual 0".17
Residuals in arcseconds: 
251222 V00  .02-  .02+    251222 I52  .42+  .35-    251223 H01  .06+  .05+    
251222 V00  .09+  .11+    251222 I52  .19-  .35+    251223 H01  .15+  .07+    
251222 V00  .04+  .01-    251223 291  .17-  .15-    251226 291  .04-  .12-    
251222 V00  .05-  .13-    251223 291  .20-  .19-    251226 291  .06+  .20+    
251222 I52  .10+  .18+    251223 H01  .14+  .22+    251226 291  .01-  .08-    
251222 I52  .37-  .19-    251223 H01  .09+  .15+    

Ephemerides (geocentric):
Date (UTC) HH   RA             Dec           delta  r     elong  mag " sig PA
---- --------  ------------   ------------  ------ ------ -----  --- --------
2025 12 26 14  08 29 55.324   +56 34 29.39  .32661 1.2494 139.3 21.4 .055 116
2025 12 26 15  08 29 29.990   +56 30 36.12  .32629 1.2494 139.4 21.4 .057 107
2025 12 26 16  08 29 04.683   +56 26 42.00  .32597 1.2494 139.5 21.4 .061  98
2025 12 26 17  08 28 39.404   +56 22 47.03  .32566 1.2495 139.6 21.4 .066  90
2025 12 26 18  08 28 14.154   +56 18 51.21  .32534 1.2495 139.7 21.4 .073  84
2025 12 26 19  08 27 48.931   +56 14 54.53  .32503 1.2495 139.8 21.4 .080  78
2025 12 26 20  08 27 23.737   +56 10 57.01  .32472 1.2496 139.9 21.4 .088  73
2025 12 26 21  08 26 58.571   +56 06 58.63  .32440 1.2496 140.0 21.4 .097  69
2025 12 26 22  08 26 33.434   +56 02 59.40  .32409 1.2496 140.1 21.4 .107  65
2025 12 26 23  08 26 08.326   +55 58 59.31  .32378 1.2496 140.2 21.4 .117  62
2025 12 27 00  08 25 43.247   +55 54 58.37  .32347 1.2497 140.3 21.4 .128  60
2025 12 27 01  08 25 18.197   +55 50 56.58  .32317 1.2497 140.4 21.4 .139  58
2025 12 27 02  08 24 53.177   +55 46 53.93  .32286 1.2497 140.5 21.4 .150  56
2025 12 27 03  08 24 28.187   +55 42 50.43  .32255 1.2498 140.7 21.4 .162  54
2025 12 27 04  08 24 03.226   +55 38 46.07  .32225 1.2498 140.8 21.4 .175  53
2025 12 27 05  08 23 38.296   +55 34 40.85  .32194 1.2498 140.9 21.4 .188  51
2025 12 27 06  08 23 13.395   +55 30 34.78  .32164 1.2499 141.0 21.4 .201  50
2025 12 27 07  08 22 48.525   +55 26 27.86  .32134 1.2499 141.1 21.4 .214  49
2025 12 27 08  08 22 23.686   +55 22 20.07  .32104 1.2499 141.2 21.4 .228  48
2025 12 27 09  08 21 58.878   +55 18 11.43  .32073 1.2500 141.3 21.4 .243  47
2025 12 27 10  08 21 34.100   +55 14 01.94  .32043 1.2500 141.4 21.4 .258  46
2025 12 27 11  08 21 09.354   +55 09 51.59  .32014 1.2500 141.5 21.3 .273  46
2025 12 27 12  08 20 44.639   +55 05 40.38  .31984 1.2501 141.6 21.3 .288  45
2025 12 27 13  08 20 19.955   +55 01 28.31  .31954 1.2501 141.7 21.3 .304  44
2025 12 27 14  08 19 55.303   +54 57 15.38  .31925 1.2501 141.8 21.3 .320  44
2025 12 27 15  08 19 30.683   +54 53 01.60  .31895 1.2502 141.9 21.3 .337  43
2025 12 27 16  08 19 06.095   +54 48 46.96  .31866 1.2502 142.1 21.3 .354  43
2025 12 27 17  08 18 41.539   +54 44 31.47  .31836 1.2502 142.2 21.3 .371  42
2025 12 27 18  08 18 17.015   +54 40 15.11  .31807 1.2503 142.3 21.3 .388  42
2025 12 27 19  08 17 52.524   +54 35 57.90  .31778 1.2503 142.4 21.3 .406  41
2025 12 27 20  08 17 28.065   +54 31 39.83  .31749 1.2504 142.5 21.3 .425  41
2025 12 27 21  08 17 03.639   +54 27 20.91  .31720 1.2504 142.6 21.3 .444  41
2025 12 27 22  08 16 39.247   +54 23 01.13  .31691 1.2504 142.7 21.3 .463  40
2025 12 27 23  08 16 14.887   +54 18 40.49  .31662 1.2505 142.8 21.3 .482  40
2025 12 28 00  08 15 50.560   +54 14 18.99  .31634 1.2505 142.9 21.3 .502  40
2025 12 28 01  08 15 26.267   +54 09 56.64  .31605 1.2505 143.0 21.3 .523  39
2025 12 28 02  08 15 02.008   +54 05 33.43  .31577 1.2506 143.2 21.3 .543  39
2025 12 28 03  08 14 37.782   +54 01 09.36  .31548 1.2506 143.3 21.3 .564  39
2025 12 28 04  08 14 13.591   +53 56 44.44  .31520 1.2506 143.4 21.3 .586  38
2025 12 28 05  08 13 49.433   +53 52 18.66  .31492 1.2507 143.5 21.3 .608  38
2025 12 28 06  08 13 25.309   +53 47 52.03  .31464 1.2507 143.6 21.3 .630  38
2025 12 28 07  08 13 01.220   +53 43 24.54  .31436 1.2507 143.7 21.3 .653  38
2025 12 28 08  08 12 37.166   +53 38 56.20  .31408 1.2508 143.8 21.3 .676  38
2025 12 28 09  08 12 13.146   +53 34 27.00  .31380 1.2508 143.9 21.3 .699  37
2025 12 28 10  08 11 49.160   +53 29 56.95  .31353 1.2509 144.0 21.2 .723  37
2025 12 28 11  08 11 25.210   +53 25 26.05  .31325 1.2509 144.2 21.2 .748  37
2025 12 28 12  08 11 01.294   +53 20 54.29  .31298 1.2509 144.3 21.2 .772  37
2025 12 28 13  08 10 37.414   +53 16 21.68  .31270 1.2510 144.4 21.2 .798  37